Location: Stuttgart
(48.8069°N, 9.1544°E)
Time: 08:11:54
(UTC+01:00)

ISS - Pass Details

Date: 12 November 2017
Orbit: 402 x 407 km, 51.6° (Epoch: 23 November)

Event Time Altitude Azimuth Distance (km) Brightness Sun altitude
Exits shadow 05:52:20 38° 296° (WNW) 627 -3.4 -15.7°
Maximum altitude 05:53:26 82° 19° (NNE) 412 -3.9 -15.5°
Drops below altitude 10° 05:56:42 10° 107° (ESE) 1,454 0.4 -15.0°
Sets 05:58:46 0° 109° (ESE) 2,311 1.8 -14.7°
